Малыкай

Россия / Республика Саха (Якутия)     63°30′23″N   117°02′00″E
темп.,
°C
ветер,
м/с
пор.,
м/с
влажн.,
%
обл.,
%
осадки,
мм/ч
давл.,
гПа
погр.,
м
3 марта, ср
ср300:00−35с229895 0.0 102519
03:00−36с229797 0.0 102525
06:00−38с229797 0.0 102619
09:00−39с129886 0.0 102619
12:00−33ссз239070 0.0 1025300
15:00−30ссз238783 0.0 1025467
18:00−32ссз129387 0.0 102619
21:00−36сз129757 0.0 102719
4 марта, чт
чт400:00−38зсз229657 0.0 102819
03:00−38зсз229665 0.0 102844
06:00−36зсз269498 0.0 1029139
09:00−35з369397 0.0 1029202
12:00−31з369098 0.0 1029351
15:00−27з488880 0.0 1029496
18:00−27з498764 0.0 1030472
21:00−31з3108932 0.0 1032289
5 марта, пт
пт500:00−33з39900 0.0 1033230
03:00−35зюз36910 0.0 1034140
06:00−36зюз35930 0.0 103488
09:00−36зюз25940 0.0 1033113
12:00−29зюз25910 0.0 1032324
15:00−24юз24897 0.0 1030459
18:00−25ю129460 0.0 102920
21:00−29ююв129736 0.0 102919
6 марта, сб
сб600:00−30ююв129732 0.0 102819
03:00−30вюв129644 0.0 102719
06:00−29вюв229680 0.0 102637
09:00−30вюв229762 0.0 102542
12:00−24в24930 0.0 1023270
15:00−20в259012 0.0 1022387
18:00−21в259570 0.0 1021174
21:00−24в259783 0.0 102187
7 марта, вс
вс700:00−26в229690 0.0 102143
03:00−27в229793 0.0 102043
06:00−28всв229778 0.0 102041
09:00−27в229786 0.0 102074
12:00−20в239487 0.0 1018275
15:00−16вюв249394 0.1 1016377
18:00−16вюв2595100 0.1 1014316
21:00−19в239897 0.1 101472